Change the Weather History Date:

Sunday, June 16, 2013

  Actual Average Record
Temperature  
Mean Temperature 56 °F 58 °F  
Max Temperature 67 °F 75 °F 82 °F (2007)
Min Temperature 44 °F 41 °F 32 °F (1981)
Degree Days  
Heating Degree Days 9 7  
Month to date heating degree days 101 156  
Since 1 June heating degree days 101 156  
Since 1 July heating degree days 8542 8801  
Cooling Degree Days 0 0  
Month to date cooling degree days 4 0  
Year to date cooling degree days 4 0  
Since 1 June cooling degree days 4 0  
Growing Degree Days 5 (Base 50)    
Moisture  
Dew Point 37 °F    
Average Humidity 49    
Maximum Humidity 66    
Minimum Humidity 32    
Precipitation  
Precipitation 0.07 in 0.04 in 0.10 in (1984)
Month to date precipitation 0.09 0.61  
Year to date precipitation 6.77 7.55  
Sea Level Pressure  
Sea Level Pressure 30.02 in    
Wind  
Wind Speed 6 mph (SSE)    
Max Wind Speed 22 mph    
Max Gust Speed 32 mph    
Visibility 10 miles    
Events Rain , Thunderstorm    
T = Trace of Precipitation, MM = Missing Value Source: NWS Daily Summary

Daily Weather History Graph

Daily Weather History Graph

Search for Another Location

Airport or City:

Trip Planner

Search our weather history database for the weather conditions in past years. The results will help you decide how hot, cold, wet, or windy it might be!

Date:

Astronomy

Jun. 16, 2013 Rise Set
Actual Time 5:40 AM MDT 8:36 PM MDT
Civil Twilight 5:08 AM MDT 9:08 PM MDT
Nautical Twilight 4:27 AM MDT 9:49 PM MDT
Astronomical Twilight 3:40 AM MDT 10:36 PM MDT
Moon 1:16 PM MDT (6/16) 12:44 AM MDT (6/16)
Length of Visible Light 16h 00m
Length of Day
14h 55m
Waxing Crescent, 50% of the Moon is Illuminated
Jun 16
Waxing Crescent
Jun 23
Full
Jun 29
Last Quarter
Jul 8
New
Jul 15
First Quarter

Hourly Weather History & Observations

Time (MDT) Temp. Windchill Dew Point Humidity Pressure Visibility Wind Dir Wind Speed Gust Speed Precip Events Conditions
12:53 AM 53.1 °F - 33.1 °F 47% 29.91 in 10.0 mi SSW 5.8 mph - N/A   Clear
1:53 AM 52.0 °F - 32.0 °F 47% 29.92 in 10.0 mi SSE 4.6 mph - N/A   Clear
2:53 AM 48.0 °F - 32.0 °F 54% 29.93 in 10.0 mi South 5.8 mph - N/A   Clear
3:53 AM 46.9 °F - 30.9 °F 54% 29.94 in 10.0 mi SSW 5.8 mph - N/A   Clear
4:53 AM 46.0 °F - 30.9 °F 56% 29.96 in 10.0 mi Calm Calm - N/A   Clear
5:53 AM 44.1 °F 40.8 °F 30.9 °F 60% 29.98 in 10.0 mi SSW 5.8 mph - N/A   Clear
6:53 AM 48.0 °F - 34.0 °F 58% 29.98 in 10.0 mi SSE 3.5 mph - N/A   Clear
7:53 AM 54.0 °F - 34.0 °F 47% 29.97 in 10.0 mi ESE 3.5 mph - N/A   Clear
8:53 AM 61.0 °F - 34.0 °F 36% 29.96 in 10.0 mi Calm Calm - N/A   Scattered Clouds
9:53 AM 63.0 °F - 37.0 °F 38% 30.01 in 10.0 mi SE 9.2 mph - N/A   Mostly Cloudy
10:53 AM 55.0 °F - 41.0 °F 59% 30.12 in 9.0 mi North 9.2 mph 23.0 mph 0.00 in Rain Light Rain
11:53 AM 60.1 °F - 45.0 °F 57% 30.06 in 10.0 mi SW 9.2 mph - 0.00 in Rain Light Rain
12:53 PM 63.0 °F - 41.0 °F 45% 30.04 in - NNW 8.1 mph - 0.00 in Thunderstorm Thunderstorm
1:53 PM 57.9 °F - 42.1 °F 56% 30.08 in 10.0 mi South 4.6 mph - 0.04 in Thunderstorm Thunderstorm
2:53 PM 60.1 °F - 41.0 °F 49% 30.06 in 10.0 mi Calm Calm - N/A   Mostly Cloudy
3:53 PM 66.0 °F - 36.0 °F 33% 29.99 in 10.0 mi North 4.6 mph - 0.00 in   Mostly Cloudy
4:53 PM 60.1 °F - 36.0 °F 41% 30.06 in 10.0 mi Variable 5.8 mph 17.3 mph 0.00 in Rain Light Rain
4:57 PM 60.8 °F - 37.4 °F 42% 30.35 in 10.0 mi WSW 8.1 mph - N/A Rain , Thunderstorm Light Thunderstorms and Rain
5:53 PM 57.9 °F - 44.1 °F 60% 30.09 in 10.0 mi SSE 13.8 mph 19.6 mph 0.03 in   Mostly Cloudy
6:53 PM 60.1 °F - 39.9 °F 47% 30.02 in 10.0 mi SSE 8.1 mph 16.1 mph N/A   Partly Cloudy
7:53 PM 59.0 °F - 39.9 °F 49% 29.99 in 10.0 mi ESE 10.4 mph - N/A   Mostly Cloudy
8:53 PM 55.9 °F - 39.9 °F 55% 29.99 in 10.0 mi ESE 13.8 mph 20.7 mph N/A   Clear
9:53 PM 55.0 °F - 37.9 °F 53% 29.99 in 10.0 mi SSE 4.6 mph - N/A   Clear
10:53 PM 55.0 °F - 36.0 °F 49% 30.01 in 10.0 mi SSE 5.8 mph - N/A   Clear
11:53 PM 48.9 °F - 37.9 °F 66% 30.02 in 10.0 mi SSW 6.9 mph - N/A   Clear